Regional Weather Roundup
Issued by NWS Upton, NY

Current Version | Previous Version | Text Only | Print | Product List | Glossary On
Versions: 1 2 3 4 5 6 7 8 9 10 11 12 13 14 15 16 17 18 19 20 21 22 23 24 25 26 27 28
000 ASUS41 KOKX 050804 RWROKX REGIONAL WEATHER ROUNDUP NATIONAL WEATHER SERVICE NEW YORK NY 400 AM EDT THU MAY 05 2016 NOTE: "FAIR" INDICATES FEW OR NO CLOUDS BELOW 12,000 FEET WITH NO SIGNIFICANT WEATHER AND/OR OBSTRUCTIONS TO VISIBILITY. NYZ071-072-176-178-NJZ106-104-050900- NEW YORK CITY METRO AREA CITY SKY/WX TMP DP RH WIND PRES REMARKS CENTRAL PARK CLOUDY 47 42 83 VRB5 29.73S LAGUARDIA APRT CLOUDY 48 45 89 N10 29.70F KENNEDY INTL CLOUDY 47 43 86 N10 29.71S NEWARK/LIBERTY CLOUDY 47 44 90 N10 29.70F BRNX BOT. GARD N/A 46 43 87 W1 29.71F TETERBORO CLOUDY 47 43 86 N5 29.71S FOG $$ NYZ177-179-078>081-050900- LONG ISLAND NEW YORK CITY SKY/WX TMP DP RH WIND PRES REMARKS FARMINGDALE CLOUDY 47 42 83 NE15 29.70F ISLIP CLOUDY 46 42 86 NE14 29.68F SHIRLEY CLOUDY 46 42 86 N9G20 29.69S RIVERHEAD N/A 46 43 87 E8 29.69F WESTHAMPTON CLOUDY 42 42 100 N18 29.69F EAST HAMPTON CLOUDY 45 43 93 N8 29.68S MONTAUK POINT N/A 46 43 89 N13G21 29.69F $$ NYZ052-065-067-050900- HUDSON VALLEY CITY SKY/WX TMP DP RH WIND PRES REMARKS WHITE PLAINS CLOUDY 46 41 82 N6 29.70F NEWBURGH NOT AVBL MONTGOMERY CLOUDY 47 43 86 NE8 29.72F POUGHKEEPSIE CLOUDY 48 42 80 N7 29.72F ALBANY CLOUDY 47 44 90 N6 29.76F $$ NJZ001-105-106-008-010-013-015-019>022-104-050900- NEW JERSEY CITY SKY/WX TMP DP RH WIND PRES REMARKS NEWARK/LIBERTY CLOUDY 47 44 90 N10 29.70F TETERBORO CLOUDY 47 43 86 N5 29.71S FOG CALDWELL CLOUDY 47 29 49 N5 29.72F HAZE MORRISTOWN CLOUDY 46 45 93 N5 29.72F FOG SOMERVILLE CLOUDY 48 43 82 N8 29.70F SUSSEX CLOUDY 46 42 86 NE7 29.72F ANDOVER N/A 45 43 93 VRB5 29.71F TRENTON CLOUDY 47 44 90 NE6 29.70R MILLVILLE CLOUDY 48 44 86 NE8G18 29.68S ATLANTIC CITY CLOUDY 47 45 93 NE8 29.67F WRIGHTSTOWN CLOUDY 47 46 98 N6 29.68S FOG TOMS RIVER CLOUDY 46 43 87 NE8 29.69F BELMAR LGT RAIN 46 45 96 N7 29.71R FOG $$ PAZ047>061-062-071-050900- EASTERN PENNSYLVANIA CITY SKY/WX TMP DP RH WIND PRES REMARKS PHILADELPHIA CLOUDY 50 43 77 NE8 29.70S ALLENTOWN CLOUDY 48 43 82 NE9 29.71F SCRANTON CLOUDY 47 43 86 CALM 29.71S $$ CTZ002-004>006-009-010-012-RIZ004-006-007-MAZ004-011-015-050900- SOUTHERN NEW ENGLAND IN CT CITY SKY/WX TMP DP RH WIND PRES REMARKS BRADLEY INTL CLOUDY 44 40 85 N10 29.73F HARTFORD CLOUDY 47 40 76 N12 29.73F DANBURY CLOUDY 45 40 82 N7 29.72F WTRBRY/OXFORD N/A 43 37 81 NE13G20 29.72F BRIDGEPORT CLOUDY 47 40 76 N14G22 29.70F MERIDEN CLOUDY 46 39 76 N10 29.72F NEW HAVEN CLOUDY 46 40 79 N14 29.69F CHESTER CLOUDY 45 41 87 N10G17 29.70S GROTON CLOUDY 46 46 100 N10 29.69F WILLIMANTIC CLOUDY 46 40 79 N12 29.72F IN RI CITY SKY/WX TMP DP RH WIND PRES REMARKS PROVIDENCE CLOUDY 45 42 89 N15G23 29.71F BLOCK ISLAND CLOUDY 45 42 89 NE18G26 29.67F WESTERLY CLOUDY 46 41 82 NE10G21 29.69F IN MA CITY SKY/WX TMP DP RH WIND PRES REMARKS BOSTON CLOUDY 44 42 93 N15 29.76 WORCESTER CLOUDY 39 38 96 N12G20 29.72F FOG WCI 32 WESTFIELD CLOUDY 44 40 85 N12 29.74F PROVINCETOWN CLOUDY 44 43 96 NE18 29.71S NANTUCKET LGT RAIN N/A N/A N/A N21G26 29.64S $$ ANZ330-335-338-340-345-350-353-355-050900- COASTAL MARINE OBSERVATIONS STATION/POSITION TIME SKY/WX TEMP WIND PRES VSBY WAVE AIR SEA DIR/SP/G HT/PER (UTC) (F) (DEG/KT/KT) (MB) (MI) (FT/S) NY HARB ENTRANCE 0650 48 50 30/ 17/ 19 1005.3 5/ 7 20S FIRE ISLAND 0650 46 48 40/ 19/ 21 1004.5 7/ 7 GREAT SOUTH BAY 0700 46 54 10/ 14/ 16 N/A 23 SSW MONTAUK P 0750 45 46 30/ 21/ 25 1003.5 7/ 7 15 E BARNEGAT LI 0722 50 N/A 8/ 7 HUDSON CANYON 0650 47 49 1002.9 7/ 7 KINGS POINT 0700 47 53 1006.2 EXECUTION ROCKS NOT AVBL CENTRAL LI SOUND 0700 47 20/ 14/ 17 N/A 1/ 3 EASTERN LI SOUND 0700 46 47 10/ 14/ 16 N/A ROBBINS REEF 0706 49 40/ 11/ 12 1005.3 $$ >>>>>>>>>>>>>>>>>>>>>>>>>>>> KEY <<<<<<<<<<<<<<<<<<<<<<<<<<< > < > SKY/WX - SKY CONDITION/PRESENT WEATHER < > TMP - TEMPERATURE IN FAHRENHEIT < > DP - DEWPOINT IN FAHRENHEIT < > RH - RELATIVE HUMIDITY IN PERCENT < > WIND - DIRECTION AND SPEED IN MPH < > PRES - MEAN SEA LEVEL PRESSURE IN INCHES OF HG < > WCI - WIND CHILL INDEX < > VSB - VISIBILITY IN MILES < > HX - HEAT INDEX < > TC - TEMPERATURE IN CELSIUS < > VRB - VARIABLE WIND DIRECTION < > < >>>>>>>>>>>>>>>>>>>>>>>>>>>> KEY <<<<<<<<<<<<<<<<<<<<<<<<<<<

USA.gov is the U.S. government's official web portal to all federal, state and local government web resources and services.